Flag for Finland Weather past 2 weeks in Turku, Finland

Now
59 °F

Scattered clouds.


Feels Like: 58 °F
Forecast: 42 / 62 °F
Wind: 8 mph from East

Location: Turku Airport

Current Time: Aug 30, 2014 at 6:27:47 PM

Latest Report: Aug 30, 2014 at 5:50 PM


Visibility: N/A

Pressure: 30.07 "Hg

Humidity: 55%

Dew point: 43 °F

Location of TurkuLocation

Historic Weather in Turku — Graph

°F

Turku temperature yesterday

Maximum temperature yesterday: 59 °F (at 4:20 PM)
Minimum temperature yesterday: 52 °F (at 1:20 AM)
Average temperature yesterday: 55 °F

Past Weeks' High & Low Weather Summary

 TemperatureHumidityPressure
High70 °F (Aug 15, 5:20 PM)100% (Aug 16, 12:50 AM)30.07 "Hg (Aug 16, 12:50 AM)
Low41 °F (Aug 30, 5:20 AM)43% (Aug 16, 6:20 PM)29.36 "Hg (Aug 19, 5:50 AM)
Average57 °F84%29.62 "Hg
* Reported Aug 15 5:20 PM — Aug 30 5:20 PM, Turku, Weather by CustomWeather, © 2014

Note: Actual official high and low records may vary slightly from our data, if they occured in-between our weather recording intervals... More about our weather records

Advertising

Turku weather history for previous 24 hours

 ConditionsComfort  
Time TempWeatherWind HumidityBarometerVisibility
5:20 PM
Aug 30
59 °FScattered clouds.6 mph51%30.07 "HgN/A
4:50 PM59 °FScattered clouds.3 mph51%30.07 "HgN/A
4:20 PM59 °FScattered clouds.5 mph55%30.07 "HgN/A
3:50 PM57 °FPartly sunny.7 mph59%30.07 "HgN/A
3:20 PM59 °FScattered clouds.7 mph55%30.07 "HgN/A
2:50 PM59 °FScattered clouds.3 mph51%30.07 "HgN/A
2:20 PM59 °FScattered clouds.6 mph51%30.07 "HgN/A
1:50 PM59 °FPassing clouds.5 mph51%30.07 "HgN/A
1:20 PM57 °FScattered clouds.6 mph55%30.07 "HgN/A
12:50 PM57 °FScattered clouds.7 mph55%30.07 "HgN/A
12:20 PM57 °FScattered clouds.6 mph51%30.04 "HgN/A
11:50 AM57 °FScattered clouds.7 mph55%30.04 "HgN/A
11:20 AM57 °FScattered clouds.7 mph55%30.04 "HgN/A
10:50 AM57 °FPassing clouds.8 mph63%30.04 "HgN/A
10:20 AM55 °FPassing clouds.8 mph72%30.04 "HgN/A
9:50 AM54 °FPassing clouds.6 mph77%30.04 "HgN/A
9:20 AM52 °FPassing clouds.7 mph82%30.04 "HgN/A
8:50 AM50 °FPassing clouds.5 mph88%30.04 "HgN/A
8:20 AM48 °FSunny.1 mph94%30.04 "Hg10 mi
7:50 AM45 °FPassing clouds.5 mph100%30.01 "HgN/A
7:20 AM43 °FPassing clouds.No wind100%30.01 "HgN/A
6:50 AM43 °FPassing clouds.No wind100%30.01 "HgN/A
6:20 AM45 °FPassing clouds.1 mph93%30.01 "HgN/A
5:50 AM45 °FPassing clouds.3 mph93%30.01 "HgN/A
5:20 AM41 °FClear.No wind100%30.01 "Hg10 mi
4:50 AM43 °FClear.1 mph93%29.98 "Hg10 mi
4:20 AM43 °FClear.2 mph100%29.98 "Hg10 mi
3:50 AM45 °FClear.2 mph93%29.98 "Hg10 mi
3:20 AM45 °FClear.No wind93%29.98 "Hg10 mi
2:50 AM46 °FPassing clouds.3 mph93%29.98 "HgN/A
2:20 AM50 °FClear.3 mph94%29.98 "Hg10 mi
1:50 AM50 °FPassing clouds.5 mph94%29.98 "HgN/A
1:20 AM52 °FPassing clouds.6 mph88%29.98 "HgN/A
12:50 AM52 °FPassing clouds.5 mph88%29.98 "HgN/A
12:20 AM54 °FPassing clouds.3 mph88%29.98 "HgN/A
10:20 PM
Aug 29
55 °FPassing clouds.3 mph88%29.95 "HgN/A
9:50 PM55 °FPassing clouds.5 mph88%29.95 "HgN/A
9:20 PM55 °FScattered clouds.5 mph82%29.95 "HgN/A
8:50 PM55 °FScattered clouds.6 mph82%29.95 "HgN/A
8:20 PM57 °FScattered clouds.6 mph77%29.92 "HgN/A
7:50 PM57 °FScattered clouds.6 mph77%29.92 "HgN/A
7:20 PM57 °FPartly sunny.5 mph82%29.92 "HgN/A
6:50 PM55 °FDrizzle. Partly sunny.9 mph88%29.92 "Hg5 mi
6:20 PM59 °FScattered clouds.6 mph72%29.92 "HgN/A
Weather by CustomWeather, © 2014

See weather overviewHow to use our weather pages